AAL442 KIND-KMEM

Flight info

Callsign AAL442
Flight time 1h 5m
Altitude 40000
Route OOM5 PXV BLUZZ5
Aircraft A333/H-SDE3GHIJ2J3J5M1RVWXY/LB2D1

Departure

Time 2026-05-05 23:26
Airport Indianapolis International Airport (KIND)

Arrival

Time 2026-05-06 00:32
Airport Memphis International Airport (KMEM)
Time Latitude Longitude Altitude Speed Heading
2026-05-05 22:54 39.71587 -86.29271 792 ft 0 kts 292°
2026-05-05 23:15 39.71586 -86.29269 791 ft 2 kts 292°
2026-05-05 23:16 39.71579 -86.29248 791 ft 3 kts 292°
2026-05-05 23:16 39.71574 -86.29224 791 ft 3 kts 258°
2026-05-05 23:16 39.71580 -86.29203 791 ft 0 kts 215°
2026-05-05 23:18 39.71574 -86.29208 791 ft 3 kts 212°
2026-05-05 23:18 39.71526 -86.29238 790 ft 12 kts 207°
2026-05-05 23:18 39.71446 -86.29308 791 ft 14 kts 219°
2026-05-05 23:18 39.71382 -86.29370 790 ft 11 kts 211°
2026-05-05 23:19 39.71307 -86.29397 789 ft 11 kts 185°
2026-05-05 23:19 39.71243 -86.29393 789 ft 8 kts 173°
2026-05-05 23:19 39.71180 -86.29387 790 ft 12 kts 180°
2026-05-05 23:19 39.71094 -86.29407 790 ft 13 kts 199°
2026-05-05 23:20 39.71023 -86.29469 789 ft 12 kts 220°
2026-05-05 23:20 39.70972 -86.29536 790 ft 9 kts 226°
2026-05-05 23:20 39.70940 -86.29578 791 ft 5 kts 224°
2026-05-05 23:20 39.70911 -86.29613 792 ft 8 kts 223°
2026-05-05 23:21 39.70857 -86.29681 793 ft 11 kts 224°
2026-05-05 23:21 39.70791 -86.29765 794 ft 14 kts 224°
2026-05-05 23:21 39.70734 -86.29836 796 ft 9 kts 224°
2026-05-05 23:21 39.70695 -86.29886 796 ft 7 kts 224°
2026-05-05 23:22 39.70656 -86.29935 795 ft 10 kts 224°
2026-05-05 23:22 39.70596 -86.30012 794 ft 14 kts 224°
2026-05-05 23:22 39.70525 -86.30103 794 ft 14 kts 224°
2026-05-05 23:22 39.70453 -86.30194 791 ft 14 kts 225°
2026-05-05 23:23 39.70383 -86.30284 791 ft 14 kts 224°
2026-05-05 23:23 39.70309 -86.30377 792 ft 15 kts 224°
2026-05-05 23:23 39.70240 -86.30468 792 ft 12 kts 225°
2026-05-05 23:23 39.70188 -86.30532 793 ft 7 kts 217°
2026-05-05 23:24 39.70157 -86.30550 794 ft 3 kts 193°
2026-05-05 23:24 39.70150 -86.30550 794 ft 2 kts 181°
2026-05-05 23:24 39.70111 -86.30526 795 ft 10 kts 145°
2026-05-05 23:24 39.70060 -86.30468 795 ft 7 kts 130°
2026-05-05 23:25 39.70055 -86.30425 796 ft 5 kts 81°
2026-05-05 23:25 39.70069 -86.30391 795 ft 0 kts 53°
2026-05-05 23:25 39.70072 -86.30386 795 ft 1 kts 50°
2026-05-05 23:25 39.70187 -86.30221 793 ft 54 kts 46°
2026-05-05 23:26 39.70579 -86.29730 797 ft 103 kts 44°
2026-05-05 23:26 39.71205 -86.28938 799 ft 146 kts 45°
2026-05-05 23:26 39.71952 -86.27960 1259 ft 152 kts 39°
2026-05-05 23:26 39.72689 -86.26999 2015 ft 147 kts 41°
2026-05-05 23:27 39.73401 -86.25952 2454 ft 165 kts 44°
2026-05-05 23:27 39.74205 -86.24733 2704 ft 190 kts 45°
2026-05-05 23:27 39.75135 -86.23359 2951 ft 216 kts 45°
2026-05-05 23:27 39.76139 -86.21769 3260 ft 238 kts 56°
2026-05-05 23:28 39.76620 -86.19618 3599 ft 263 kts 87°
2026-05-05 23:28 39.76215 -86.17265 4260 ft 272 kts 120°
2026-05-05 23:28 39.75143 -86.15262 5165 ft 270 kts 133°
2026-05-05 23:28 39.73923 -86.13408 6065 ft 270 kts 140°
2026-05-05 23:29 39.72445 -86.11953 6910 ft 264 kts 158°
2026-05-05 23:29 39.70716 -86.11263 7728 ft 260 kts 180°
2026-05-05 23:29 39.68960 -86.11584 8594 ft 254 kts 206°
2026-05-05 23:29 39.67427 -86.12709 9504 ft 254 kts 216°
2026-05-05 23:30 39.65977 -86.14036 10303 ft 259 kts 219°
2026-05-05 23:30 39.64466 -86.15462 10684 ft 279 kts 219°
2026-05-05 23:30 39.62839 -86.16992 11068 ft 297 kts 219°
2026-05-05 23:30 39.61134 -86.18577 11766 ft 304 kts 219°
2026-05-05 23:31 39.59426 -86.20155 12546 ft 306 kts 220°
2026-05-05 23:31 39.57685 -86.21758 13425 ft 307 kts 221°
2026-05-05 23:31 39.55939 -86.23365 14221 ft 309 kts 221°
2026-05-05 23:31 39.54171 -86.24993 14865 ft 315 kts 221°
2026-05-05 23:32 39.52370 -86.26649 15498 ft 319 kts 221°
2026-05-05 23:32 39.50542 -86.28329 15991 ft 327 kts 221°
2026-05-05 23:32 39.48859 -86.29874 16511 ft 331 kts 220°
2026-05-05 23:32 39.46967 -86.31608 17147 ft 335 kts 220°
2026-05-05 23:33 39.45055 -86.33359 17745 ft 339 kts 220°
2026-05-05 23:33 39.43122 -86.35129 18304 ft 343 kts 220°
2026-05-05 23:33 39.41166 -86.36918 18819 ft 346 kts 220°
2026-05-05 23:33 39.39193 -86.38722 19359 ft 349 kts 220°
2026-05-05 23:34 39.37205 -86.40539 19883 ft 352 kts 220°
2026-05-05 23:34 39.35199 -86.42370 20400 ft 355 kts 220°
2026-05-05 23:34 39.33175 -86.44216 20915 ft 357 kts 220°
2026-05-05 23:34 39.31136 -86.46075 21434 ft 360 kts 220°
2026-05-05 23:35 39.29083 -86.47945 21927 ft 363 kts 221°
2026-05-05 23:35 39.27017 -86.49825 22485 ft 364 kts 221°
2026-05-05 23:35 39.24940 -86.51715 22976 ft 367 kts 221°
2026-05-05 23:35 39.22847 -86.53619 23445 ft 370 kts 221°
2026-05-05 23:36 39.20734 -86.55539 23840 ft 372 kts 221°
2026-05-05 23:36 39.18608 -86.57470 24224 ft 376 kts 221°
2026-05-05 23:36 39.16459 -86.59421 24603 ft 379 kts 221°
2026-05-05 23:36 39.14231 -86.61280 24977 ft 386 kts 216°
2026-05-05 23:37 39.11818 -86.62868 25361 ft 392 kts 213°
2026-05-05 23:37 39.09369 -86.64345 25735 ft 395 kts 213°
2026-05-05 23:37 39.06867 -86.65833 26082 ft 397 kts 213°
2026-05-05 23:37 39.04352 -86.67329 26458 ft 400 kts 213°
2026-05-05 23:38 39.01818 -86.68838 26805 ft 402 kts 213°
2026-05-05 23:38 38.99274 -86.70355 27167 ft 405 kts 214°
2026-05-05 23:38 38.96709 -86.71885 27519 ft 407 kts 214°
2026-05-05 23:38 38.94127 -86.73426 27859 ft 410 kts 214°
2026-05-05 23:39 38.91533 -86.74971 28203 ft 412 kts 214°
2026-05-05 23:39 38.88921 -86.76526 28526 ft 415 kts 214°
2026-05-05 23:39 38.86291 -86.78092 28859 ft 417 kts 214°
2026-05-05 23:39 38.83643 -86.79667 29157 ft 420 kts 214°
2026-05-05 23:40 38.80988 -86.81244 29501 ft 422 kts 214°
2026-05-05 23:40 38.78314 -86.82832 29835 ft 424 kts 214°
2026-05-05 23:40 38.75629 -86.84427 30100 ft 427 kts 215°
2026-05-05 23:40 38.72964 -86.86006 30393 ft 428 kts 215°
2026-05-05 23:41 38.70258 -86.87607 30706 ft 429 kts 215°
2026-05-05 23:41 38.67541 -86.89214 31008 ft 430 kts 215°
2026-05-05 23:41 38.64822 -86.90821 31279 ft 431 kts 215°
2026-05-05 23:41 38.62091 -86.92435 31566 ft 433 kts 215°
2026-05-05 23:42 38.59350 -86.94053 31791 ft 435 kts 215°
2026-05-05 23:42 38.56600 -86.95675 32093 ft 435 kts 216°
2026-05-05 23:42 38.53891 -86.97339 32554 ft 427 kts 219°
2026-05-05 23:42 38.51404 -86.99303 33000 ft 413 kts 226°
2026-05-05 23:43 38.49236 -87.01621 33401 ft 401 kts 233°
2026-05-05 23:43 38.47292 -87.04134 33796 ft 396 kts 236°
2026-05-05 23:43 38.45396 -87.06683 34138 ft 394 kts 236°
2026-05-05 23:43 38.43516 -87.09219 34429 ft 393 kts 236°
2026-05-05 23:44 38.41634 -87.11748 34724 ft 393 kts 236°
2026-05-05 23:44 38.39754 -87.14266 35003 ft 392 kts 236°
2026-05-05 23:44 38.37876 -87.16776 35287 ft 391 kts 236°
2026-05-05 23:44 38.36002 -87.19274 35569 ft 390 kts 236°
2026-05-05 23:45 38.34154 -87.21735 35833 ft 389 kts 237°
2026-05-05 23:45 38.32263 -87.24251 36114 ft 388 kts 237°
2026-05-05 23:45 38.30418 -87.26702 36385 ft 387 kts 237°
2026-05-05 23:45 38.28558 -87.29173 36651 ft 386 kts 237°
2026-05-05 23:46 38.26701 -87.31635 36902 ft 385 kts 237°
2026-05-05 23:46 38.24847 -87.34093 37173 ft 384 kts 237°
2026-05-05 23:46 38.23003 -87.36533 37502 ft 381 kts 237°
2026-05-05 23:46 38.21167 -87.38962 37772 ft 380 kts 237°
2026-05-05 23:47 38.19336 -87.41385 38012 ft 379 kts 237°
2026-05-05 23:47 38.17509 -87.43801 38245 ft 379 kts 237°
2026-05-05 23:47 38.15687 -87.46207 38447 ft 378 kts 238°
2026-05-05 23:47 38.13864 -87.48613 38626 ft 378 kts 238°
2026-05-05 23:48 38.10832 -87.52611 38880 ft 378 kts 237°
2026-05-05 23:48 38.09005 -87.55017 39022 ft 378 kts 237°
2026-05-05 23:48 38.07179 -87.57421 39169 ft 379 kts 237°
2026-05-05 23:49 38.05349 -87.59827 39300 ft 379 kts 237°
2026-05-05 23:49 38.03514 -87.62237 39447 ft 379 kts 237°
2026-05-05 23:49 38.01684 -87.64639 39585 ft 379 kts 237°
2026-05-05 23:49 37.99845 -87.67053 39467 ft 381 kts 237°
2026-05-05 23:50 37.98007 -87.69461 39225 ft 379 kts 237°
2026-05-05 23:50 37.96174 -87.71860 38975 ft 378 kts 237°
2026-05-05 23:50 37.94296 -87.74210 38734 ft 382 kts 234°
2026-05-05 23:50 37.92188 -87.76337 38498 ft 393 kts 227°
2026-05-05 23:51 37.89798 -87.78128 38215 ft 405 kts 221°
2026-05-05 23:51 37.87260 -87.79725 37930 ft 409 kts 219°
2026-05-05 23:51 37.84689 -87.81285 37664 ft 410 kts 219°
2026-05-05 23:51 37.82112 -87.82845 37394 ft 411 kts 219°
2026-05-05 23:52 37.79531 -87.84414 37127 ft 412 kts 219°
2026-05-05 23:52 37.76946 -87.85988 36865 ft 413 kts 219°
2026-05-05 23:52 37.74359 -87.87566 36605 ft 413 kts 219°
2026-05-05 23:52 37.71766 -87.89147 36363 ft 414 kts 219°
2026-05-05 23:53 37.69167 -87.90734 36077 ft 415 kts 219°
2026-05-05 23:53 37.66558 -87.92327 35836 ft 418 kts 218°
2026-05-05 23:53 37.63964 -87.93909 35594 ft 420 kts 218°
2026-05-05 23:53 37.61327 -87.95515 35346 ft 421 kts 218°
2026-05-05 23:54 37.58685 -87.97122 35112 ft 422 kts 218°
2026-05-05 23:54 37.56035 -87.98732 34880 ft 423 kts 218°
2026-05-05 23:54 37.53380 -88.00344 34641 ft 424 kts 218°
2026-05-05 23:54 37.50720 -88.01959 34399 ft 425 kts 218°
2026-05-05 23:55 37.48054 -88.03575 34166 ft 425 kts 218°
2026-05-05 23:55 37.45384 -88.05193 33912 ft 426 kts 218°
2026-05-05 23:55 37.40038 -88.08429 33850 ft 427 kts 218°
2026-05-05 23:56 37.34686 -88.11662 33857 ft 425 kts 218°
2026-05-05 23:56 37.29367 -88.14871 33823 ft 424 kts 218°
2026-05-05 23:57 37.24055 -88.18072 33816 ft 424 kts 218°
2026-05-05 23:57 37.18737 -88.21273 33813 ft 423 kts 218°
2026-05-05 23:58 37.13428 -88.24462 33817 ft 422 kts 218°
2026-05-05 23:58 37.08126 -88.27642 33615 ft 422 kts 218°
2026-05-05 23:59 37.05473 -88.29232 33364 ft 423 kts 218°
2026-05-05 23:59 37.02810 -88.30827 33096 ft 425 kts 218°
2026-05-05 23:59 37.00175 -88.32405 32836 ft 426 kts 217°
2026-05-05 23:59 36.97494 -88.34009 32554 ft 428 kts 217°
2026-05-06 00:00 36.94794 -88.35622 32299 ft 431 kts 217°
2026-05-06 00:00 36.92084 -88.37240 32054 ft 433 kts 217°
2026-05-06 00:00 36.89357 -88.38865 31802 ft 435 kts 216°
2026-05-06 00:00 36.86630 -88.40488 31557 ft 435 kts 216°
2026-05-06 00:01 36.83902 -88.42110 31316 ft 434 kts 216°
2026-05-06 00:01 36.81182 -88.43726 31065 ft 433 kts 216°
2026-05-06 00:01 36.78467 -88.45338 30833 ft 432 kts 216°
2026-05-06 00:01 36.75754 -88.46949 30601 ft 431 kts 215°
2026-05-06 00:02 36.73057 -88.48547 30330 ft 426 kts 215°
2026-05-06 00:02 36.70339 -88.50164 30092 ft 440 kts 214°
2026-05-06 00:02 36.67533 -88.51840 29838 ft 455 kts 214°
2026-05-06 00:02 36.64673 -88.53533 29560 ft 450 kts 213°
2026-05-06 00:03 36.61883 -88.55167 29283 ft 435 kts 214°
2026-05-06 00:03 36.59182 -88.56750 29022 ft 424 kts 214°
2026-05-06 00:03 36.56542 -88.58305 28785 ft 415 kts 214°
2026-05-06 00:03 36.53961 -88.59826 28421 ft 407 kts 214°
2026-05-06 00:04 36.51418 -88.61328 27978 ft 402 kts 214°
2026-05-06 00:04 36.48904 -88.62812 27509 ft 398 kts 214°
2026-05-06 00:04 36.46419 -88.64275 27134 ft 393 kts 214°
2026-05-06 00:04 36.43963 -88.65722 26726 ft 388 kts 214°
2026-05-06 00:05 36.39107 -88.68581 25872 ft 385 kts 213°
2026-05-06 00:05 36.36640 -88.70041 25431 ft 401 kts 213°
2026-05-06 00:05 36.34095 -88.71542 25014 ft 407 kts 213°
2026-05-06 00:06 36.31536 -88.73041 24577 ft 407 kts 213°
2026-05-06 00:06 36.28982 -88.74533 24140 ft 404 kts 213°
2026-05-06 00:06 36.26453 -88.76009 23816 ft 401 kts 213°
2026-05-06 00:06 36.23932 -88.77482 23287 ft 400 kts 212°
2026-05-06 00:07 36.21425 -88.78946 22883 ft 396 kts 212°
2026-05-06 00:07 36.18946 -88.80393 22799 ft 394 kts 212°
2026-05-06 00:07 36.16449 -88.81854 22722 ft 399 kts 212°
2026-05-06 00:07 36.13950 -88.83312 22713 ft 396 kts 212°
2026-05-06 00:08 36.11473 -88.84754 22402 ft 392 kts 212°
2026-05-06 00:08 36.08993 -88.86200 21525 ft 397 kts 212°
2026-05-06 00:08 36.06494 -88.87658 20787 ft 398 kts 212°
2026-05-06 00:08 36.03996 -88.89110 20188 ft 395 kts 211°
2026-05-06 00:09 36.01524 -88.90544 19646 ft 390 kts 211°
2026-05-06 00:09 35.99089 -88.91956 19213 ft 383 kts 211°
2026-05-06 00:09 35.96726 -88.93321 18839 ft 367 kts 212°
2026-05-06 00:09 35.94439 -88.94645 18482 ft 361 kts 212°
2026-05-06 00:10 35.92182 -88.95956 18231 ft 357 kts 212°
2026-05-06 00:10 35.89938 -88.97260 17868 ft 356 kts 212°
2026-05-06 00:10 35.87707 -88.98554 17493 ft 353 kts 212°
2026-05-06 00:10 35.85493 -88.99836 17139 ft 351 kts 212°
2026-05-06 00:11 35.83289 -89.01112 16787 ft 348 kts 212°
2026-05-06 00:11 35.81101 -89.02377 16435 ft 346 kts 211°
2026-05-06 00:11 35.78929 -89.03632 16082 ft 344 kts 211°
2026-05-06 00:11 35.76767 -89.04881 15734 ft 342 kts 211°
2026-05-06 00:12 35.74628 -89.06131 15381 ft 338 kts 214°
2026-05-06 00:12 35.72680 -89.07675 15041 ft 328 kts 225°
2026-05-06 00:12 35.71035 -89.09591 14693 ft 323 kts 230°
2026-05-06 00:12 35.69489 -89.11585 14369 ft 321 kts 231°
2026-05-06 00:13 35.67979 -89.13558 14080 ft 320 kts 231°
2026-05-06 00:13 35.66455 -89.15545 13877 ft 319 kts 231°
2026-05-06 00:13 35.64935 -89.17520 13699 ft 318 kts 231°
2026-05-06 00:13 35.63415 -89.19488 13494 ft 317 kts 231°
2026-05-06 00:14 35.61896 -89.21452 13134 ft 316 kts 231°
2026-05-06 00:14 35.60411 -89.23401 12757 ft 306 kts 232°
2026-05-06 00:14 35.59070 -89.25328 12383 ft 288 kts 235°
2026-05-06 00:14 35.57829 -89.27170 12012 ft 272 kts 235°
2026-05-06 00:15 35.56645 -89.28940 11673 ft 266 kts 235°
2026-05-06 00:15 35.55477 -89.30691 11297 ft 264 kts 235°
2026-05-06 00:15 35.54319 -89.32427 10940 ft 261 kts 234°
2026-05-06 00:15 35.53170 -89.34145 10584 ft 259 kts 234°
2026-05-06 00:16 35.52028 -89.35851 10230 ft 258 kts 234°
2026-05-06 00:16 35.50903 -89.37528 10036 ft 250 kts 233°
2026-05-06 00:16 35.49771 -89.39190 9980 ft 269 kts 233°
2026-05-06 00:16 35.48565 -89.40923 10002 ft 259 kts 234°
2026-05-06 00:17 35.47723 -89.42763 10008 ft 239 kts 253°
2026-05-06 00:17 35.47358 -89.44690 9965 ft 226 kts 259°
2026-05-06 00:17 35.47092 -89.46575 9528 ft 225 kts 259°
2026-05-06 00:17 35.46842 -89.48487 8975 ft 228 kts 259°
2026-05-06 00:18 35.46598 -89.50410 8479 ft 229 kts 259°
2026-05-06 00:18 35.46360 -89.52339 7998 ft 228 kts 259°
2026-05-06 00:18 35.46128 -89.54260 7546 ft 227 kts 259°
2026-05-06 00:18 35.45904 -89.56174 7097 ft 226 kts 259°
2026-05-06 00:19 35.45693 -89.58077 6659 ft 224 kts 259°
2026-05-06 00:19 35.45494 -89.59945 6246 ft 223 kts 260°
2026-05-06 00:19 35.45294 -89.61856 5798 ft 223 kts 259°
2026-05-06 00:19 35.45107 -89.63710 5374 ft 221 kts 260°
2026-05-06 00:20 35.44918 -89.65576 5061 ft 220 kts 260°
2026-05-06 00:20 35.44734 -89.67443 4989 ft 221 kts 260°
2026-05-06 00:20 35.44553 -89.69317 4987 ft 222 kts 260°
2026-05-06 00:20 35.44373 -89.71192 4984 ft 221 kts 260°
2026-05-06 00:21 35.44195 -89.73062 4983 ft 220 kts 260°
2026-05-06 00:21 35.44011 -89.74926 4985 ft 220 kts 260°
2026-05-06 00:21 35.43826 -89.76781 4873 ft 219 kts 259°
2026-05-06 00:21 35.43651 -89.78650 4379 ft 221 kts 260°
2026-05-06 00:22 35.43486 -89.80517 4021 ft 217 kts 260°
2026-05-06 00:22 35.43343 -89.82298 3835 ft 202 kts 259°
2026-05-06 00:22 35.42949 -89.83871 3615 ft 190 kts 234°
2026-05-06 00:22 35.41955 -89.84881 3360 ft 184 kts 212°
2026-05-06 00:23 35.40848 -89.85549 3220 ft 171 kts 208°
2026-05-06 00:23 35.39812 -89.86139 3115 ft 157 kts 208°
2026-05-06 00:23 35.38858 -89.86669 3006 ft 142 kts 208°
2026-05-06 00:23 35.37978 -89.87138 2994 ft 140 kts 208°
2026-05-06 00:24 35.37061 -89.87629 2985 ft 146 kts 207°
2026-05-06 00:24 35.36131 -89.88136 2983 ft 146 kts 207°
2026-05-06 00:24 35.35218 -89.88650 2986 ft 147 kts 208°
2026-05-06 00:24 35.34292 -89.89178 2983 ft 147 kts 208°
2026-05-06 00:25 35.33365 -89.89706 2984 ft 147 kts 208°
2026-05-06 00:25 35.32436 -89.90229 2983 ft 150 kts 208°
2026-05-06 00:25 35.31466 -89.90785 2984 ft 156 kts 208°
2026-05-06 00:25 35.30476 -89.91363 2983 ft 158 kts 208°
2026-05-06 00:26 35.29483 -89.91928 2972 ft 158 kts 208°
2026-05-06 00:26 35.28486 -89.92497 2983 ft 158 kts 208°
2026-05-06 00:26 35.27495 -89.93070 2981 ft 158 kts 208°
2026-05-06 00:26 35.26503 -89.93650 2984 ft 157 kts 208°
2026-05-06 00:27 35.25516 -89.94215 2980 ft 157 kts 208°
2026-05-06 00:27 35.24522 -89.94777 2976 ft 158 kts 207°
2026-05-06 00:27 35.23536 -89.95354 2986 ft 157 kts 208°
2026-05-06 00:27 35.22553 -89.95935 2986 ft 157 kts 208°
2026-05-06 00:28 35.21573 -89.96516 2988 ft 157 kts 208°
2026-05-06 00:28 35.20595 -89.97098 2986 ft 156 kts 208°
2026-05-06 00:28 35.19615 -89.97677 2989 ft 156 kts 208°
2026-05-06 00:28 35.18641 -89.98254 2988 ft 155 kts 208°
2026-05-06 00:29 35.17631 -89.98728 2990 ft 157 kts 199°
2026-05-06 00:29 35.16545 -89.98921 2988 ft 159 kts 189°
2026-05-06 00:29 35.15432 -89.98949 2900 ft 159 kts 186°
2026-05-06 00:29 35.14307 -89.98949 2927 ft 167 kts 186°
2026-05-06 00:30 35.13113 -89.98935 2842 ft 175 kts 188°
2026-05-06 00:30 35.11910 -89.98895 2551 ft 167 kts 193°
2026-05-06 00:30 35.10789 -89.98832 2170 ft 156 kts 192°
2026-05-06 00:30 35.09746 -89.98821 1772 ft 145 kts 198°
2026-05-06 00:31 35.08766 -89.98891 1361 ft 139 kts 190°
2026-05-06 00:31 35.07771 -89.98912 1160 ft 155 kts 184°
2026-05-06 00:31 35.06681 -89.98846 836 ft 155 kts 189°
2026-05-06 00:31 35.05646 -89.98790 545 ft 144 kts 186°
2026-05-06 00:32 35.04688 -89.98737 324 ft 128 kts 186°
2026-05-06 00:32 35.03904 -89.98736 311 ft 95 kts 177°
2026-05-06 00:32 35.03421 -89.98718 320 ft 46 kts 178°
2026-05-06 00:32 35.03253 -89.98691 319 ft 31 kts 166°
2026-05-06 00:33 35.03109 -89.98595 319 ft 11 kts 137°
2026-05-06 00:33 35.03096 -89.98579 319 ft 0 kts 133°
2026-05-06 00:34 35.03098 -89.98570 317 ft 2 kts 83°
2026-05-06 00:35 35.03143 -89.98563 318 ft 12 kts 357°
2026-05-06 00:35 35.03247 -89.98567 319 ft 14 kts 18°
2026-05-06 00:35 35.03349 -89.98490 319 ft 20 kts 19°
2026-05-06 00:35 35.03504 -89.98480 319 ft 24 kts 359°
2026-05-06 00:36 35.03678 -89.98486 314 ft 26 kts 357°
2026-05-06 00:36 35.03839 -89.98492 311 ft 18 kts 359°
2026-05-06 00:36 35.03977 -89.98494 308 ft 22 kts 359°
2026-05-06 00:36 35.04109 -89.98495 306 ft 9 kts
2026-05-06 00:37 35.04167 -89.98456 306 ft 10 kts 47°
2026-05-06 00:37 35.04167 -89.98390 307 ft 7 kts 121°